FALCON 9 DEB (54211 NORAD) Tracking and Keplerian Element Data

This shows tracking and keplerian element data for the satellite.

Feedback or suggestion? Click here.




ElementValue
Catalog54211
NameFALCON 9 DEB
Epoch Orbit108
Epoch Day307.71216735
Epoch Year2022
RAAN110.8791
Inclination53.2071
Eccentricity0.0057895
Argument of Perigee183.6406
Mean Anonmoly176.4216
Mean Motion16.06069512
Decay Rate0.00901414
L11 54211U 22141BG 22307.71216735 .00901414 11400-4 94626-3 0 9998
L22 54211 53.2071 110.8791 0057895 183.6406 176.4216 16.06069512 1084



Live tracking and technical data element details for FALCON 9 DEB (NORAD 54211). FALCON 9 DEB can be tracked NOW for your location showing map with azimuth and elevation plus other details from your city location.







IsCatalogInMostPopularTable: catalog: 54211, numindb: 5
Update: records affected: 1



GetName: 54211 FALCON 9 DEB

Hit Count: updated at: Sun, 04 Dec 2022 21:30:22 GMT